| time (UTC) | temp C | wind direction | speed KPH | gust KPH | rain 1hr cm | rain 24hr cm | rain mn cm | humidity % | barometer mb |
| 20260506073102 | 14 | 148 | 3.2 | 8.0 | 0.00 | 0.00 | 0.00 | 88 | 1015.3 |
| 20260506071559 | 14 | 0 | 1.6 | 11.3 | 0.00 | 0.00 | 0.00 | 88 | 1015.3 |
| 20260506061601 | 14 | 150 | 6.4 | 11.3 | 0.00 | 0.00 | 0.00 | 86 | 1015.5 |
| 20260506050111 | 15 | 157 | 4.8 | 11.3 | 0.00 | 0.00 | 0.00 | 83 | 1016.4 |
| 20260506044557 | 15 | 143 | 6.4 | 11.3 | 0.00 | 0.00 | 0.00 | 83 | 1016.5 |
| 20260506043101 | 15 | 143 | 4.8 | 11.3 | 0.00 | 0.00 | 0.00 | 82 | 1016.7 |
| 20260506041557 | 15 | 153 | 8.0 | 12.9 | 0.00 | 0.00 | 0.00 | 82 | 1016.8 |
| 20260506040106 | 16 | 151 | 4.8 | 11.3 | 0.00 | 0.00 | 0.00 | 81 | 1016.9 |
| 20260506034606 | 16 | 146 | 3.2 | 8.0 | 0.00 | 0.00 | 0.00 | 80 | 1017.0 |
| 20260506033059 | 16 | 144 | 4.8 | 11.3 | 0.00 | 0.00 | 0.00 | 79 | 1017.0 |
| 20260506031559 | 16 | 155 | 3.2 | 11.3 | 0.00 | 0.00 | 0.00 | 79 | 1017.0 |
| 20260506030058 | 16 | 142 | 4.8 | 14.5 | 0.00 | 0.00 | 0.00 | 78 | 1017.1 |
| 20260506024558 | 17 | 127 | 6.4 | 11.3 | 0.00 | 0.00 | 0.00 | 77 | 1017.1 |
| 20260506023054 | 17 | 146 | 4.8 | 11.3 | 0.00 | 0.00 | 0.00 | 76 | 1017.0 |
| 20260506021605 | 17 | 140 | 6.4 | 12.9 | 0.00 | 0.00 | 0.00 | 75 | 1017.0 |
| 20260506020058 | 18 | 142 | 6.4 | 14.5 | 0.00 | 0.00 | 0.00 | 74 | 1016.7 |
| 20260506014554 | 18 | 142 | 4.8 | 11.3 | 0.00 | 0.00 | 0.00 | 73 | 1016.7 |
| 20260506013102 | 18 | 157 | 8.0 | 16.1 | 0.00 | 0.00 | 0.00 | 72 | 1016.6 |
| 20260506011604 | 19 | 182 | 6.4 | 16.1 | 0.00 | 0.00 | 0.00 | 70 | 1016.5 |
| 20260506010054 | 19 | 207 | 9.7 | 19.3 | 0.00 | 0.00 | 0.00 | 70 | 1016.4 |
| 20260506004556 | 20 | 144 | 9.7 | 24.1 | 0.00 | 0.00 | 0.00 | 68 | 1016.2 |
| 20260506003053 | 20 | 142 | 14.5 | 22.5 | 0.00 | 0.00 | 0.00 | 68 | 1016.0 |
| 20260506001554 | 20 | 150 | 11.3 | 20.9 | 0.00 | 0.00 | 0.00 | 68 | 1015.9 |
| 20260506000054 | 21 | 136 | 12.9 | 22.5 | 0.00 | 0.00 | 0.00 | 66 | 1015.8 |
| 20260505234606 | 21 | 149 | 16.1 | 29.0 | 0.00 | 0.00 | 0.00 | 65 | 1015.8 |
| 20260505233056 | 22 | 100 | 16.1 | 32.2 | 0.00 | 0.00 | 0.00 | 64 | 1015.7 |
| 20260505231607 | 22 | 134 | 19.3 | 29.0 | 0.00 | 0.00 | 0.00 | 62 | 1015.7 |
| 20260505230054 | 22 | 139 | 14.5 | 30.6 | 0.00 | 0.00 | 0.00 | 61 | 1015.6 |
| 20260505224554 | 23 | 158 | 16.1 | 32.2 | 0.00 | 0.00 | 0.00 | 59 | 1015.7 |
| 20260505223106 | 23 | 127 | 17.7 | 40.2 | 0.00 | 0.00 | 0.00 | 58 | 1015.7 |
| 20260505221558 | 24 | 242 | 12.9 | 35.4 | 0.00 | 0.00 | 0.00 | 54 | 1015.8 |
| 20260505220059 | 24 | 142 | 14.5 | 32.2 | 0.00 | 0.00 | 0.00 | 51 | 1015.6 |
| 20260505214615 | 25 | 200 | 12.9 | 29.0 | 0.00 | 0.00 | 0.00 | 50 | 1015.6 |
| 20260505213108 | 25 | 214 | 11.3 | 29.0 | 0.00 | 0.00 | 0.00 | 49 | 1015.6 |
| 20260505211608 | 25 | 143 | 14.5 | 32.2 | 0.00 | 0.00 | 0.00 | 49 | 1015.6 |
| 20260505210057 | 25 | 209 | 11.3 | 32.2 | 0.00 | 0.00 | 0.00 | 50 | 1015.5 |
| 20260505204554 | 25 | 141 | 14.5 | 32.2 | 0.00 | 0.00 | 0.00 | 49 | 1015.4 |
| 20260505203053 | 25 | 179 | 14.5 | 30.6 | 0.00 | 0.00 | 0.00 | 50 | 1015.6 |
| 20260505201558 | 25 | 192 | 19.3 | 40.2 | 0.00 | 0.00 | 0.00 | 48 | 1015.7 |
| 20260505200105 | 25 | 153 | 16.1 | 32.2 | 0.00 | 0.00 | 0.00 | 48 | 1015.8 |
| 20260505194559 | 25 | 144 | 11.3 | 30.6 | 0.00 | 0.00 | 0.00 | 48 | 1016.0 |
| 20260505193053 | 25 | 163 | 16.1 | 35.4 | 0.00 | 0.00 | 0.00 | 48 | 1016.4 |
| 20260505191553 | 25 | 188 | 9.7 | 33.8 | 0.00 | 0.00 | 0.00 | 46 | 1016.4 |
| 20260505190056 | 25 | 151 | 8.0 | 29.0 | 0.00 | 0.00 | 0.00 | 49 | 1016.6 |
| 20260505184554 | 26 | 169 | 11.3 | 24.1 | 0.00 | 0.00 | 0.00 | 48 | 1016.6 |
| 20260505183104 | 25 | 163 | 12.9 | 27.4 | 0.00 | 0.00 | 0.00 | 47 | 1016.8 |
| 20260505181554 | 25 | 142 | 12.9 | 22.5 | 0.00 | 0.00 | 0.00 | 50 | 1017.1 |
| 20260505180059 | 25 | 155 | 9.7 | 27.4 | 0.00 | 0.00 | 0.00 | 49 | 1017.1 |
| 20260505174601 | 25 | 170 | 9.7 | 32.2 | 0.00 | 0.00 | 0.00 | 50 | 1017.0 |
| 20260505173056 | 25 | 155 | 14.5 | 30.6 | 0.00 | 0.00 | 0.00 | 51 | 1017.1 |
| 20260505171556 | 24 | 209 | 6.4 | 22.5 | 0.00 | 0.00 | 0.00 | 50 | 1017.1 |
| 20260505170054 | 25 | 132 | 11.3 | 22.5 | 0.00 | 0.00 | 0.00 | 52 | 1017.3 |
| 20260505164604 | 23 | 171 | 8.0 | 30.6 | 0.00 | 0.00 | 0.00 | 54 | 1017.2 |
| 20260505163053 | 23 | 174 | 6.4 | 29.0 | 0.00 | 0.00 | 0.00 | 53 | 1017.5 |
| 20260505161603 | 24 | 229 | 8.0 | 20.9 | 0.00 | 0.00 | 0.00 | 52 | 1017.8 |
| 20260505153102 | 23 | 167 | 9.7 | 25.7 | 0.00 | 0.00 | 0.00 | 54 | 1018.3 |
| 20260505151604 | 22 | 240 | 6.4 | 19.3 | 0.00 | 0.00 | 0.00 | 56 | 1018.3 |
| 20260505140113 | 21 | 211 | 8.0 | 22.5 | 0.00 | 0.00 | 0.00 | 65 | 1018.3 |
| 20260505124557 | 18 | 155 | 4.8 | 16.1 | 0.00 | 0.00 | 0.00 | 77 | 1018.3 |
| 20260505123059 | 17 | 134 | 6.4 | 12.9 | 0.00 | 0.00 | 0.00 | 81 | 1018.4 |
| 20260505121559 | 16 | 152 | 6.4 | 12.9 | 0.00 | 0.00 | 0.00 | 83 | 1018.2 |
| 20260505120057 | 15 | 156 | 4.8 | 12.9 | 0.00 | 0.00 | 0.00 | 85 | 1018.1 |
| 20260505114600 | 13 | 136 | 3.2 | 8.0 | 0.00 | 0.00 | 0.00 | 87 | 1018.0 |
| 20260505113120 | 13 | 161 | 3.2 | 6.4 | 0.00 | 0.00 | 0.00 | 88 | 1017.9 |
| 20260505111557 | 12 | 130 | 1.6 | 4.8 | 0.00 | 0.00 | 0.00 | 88 | 1017.7 |
| 20260505101554 | 12 | 0 | 0.0 | 0.0 | 0.00 | 0.00 | 0.00 | 86 | 1016.9 |
| 20260505100055 | 12 | 0 | 0.0 | 0.0 | 0.00 | 0.00 | 0.00 | 86 | 1016.9 |
| 20260505094554 | 12 | 136 | 0.0 | 4.8 | 0.00 | 0.00 | 0.00 | 86 | 1016.7 |
| 20260505093100 | 12 | 0 | 1.6 | 4.8 | 0.00 | 0.00 | 0.00 | 85 | 1016.6 |
| 20260505091603 | 13 | 180 | 1.6 | 4.8 | 0.00 | 0.00 | 0.00 | 84 | 1016.5 |
| 20260505090054 | 13 | 0 | 0.0 | 4.8 | 0.00 | 0.00 | 0.00 | 84 | 1016.4 |
| 20260505084556 | 13 | 169 | 1.6 | 4.8 | 0.00 | 0.00 | 0.00 | 83 | 1016.3 |
| 20260505083101 | 13 | 0 | 0.0 | 4.8 | 0.00 | 0.00 | 0.00 | 83 | 1016.3 |
| 20260505081604 | 13 | 150 | 3.2 | 6.4 | 0.00 | 0.00 | 0.00 | 82 | 1016.2 |